M I D A S
Marine Information and Data Acquisition System
Tripno 316 of the Zeeleeuw from 2002-03-12 07:00:59 to 2002-03-12 18:10:07
Back to CruiseResearch ActivitiesStationsMapUnderway DataData graphs

EquipmentUnitsComment
TimeDGPSUTC
LatitudeDGPSDM.mWGS84
LongitudeDGPSDM.mWGS84
TemperatureSBE03/SBE38deg celciusITS90
ConductivitySBE21S/mITS90
SalinitySBE21 Practical Salinity Units
ChlorophylAChelsea fluorimeterg/lCalibrated in Aceton
Missing or incorrect values are displayed as -999
Sea surface data collected by the RV Zeeleeuw from 2002-03-12 07:00:59 to 2002-03-12 18:10:07
                                                                                    Next 1000 lines
Time Latitude Longitude Temperature Conductivity Salinity ChlorophylA
2002-03-12 07:01:05 51°13.687 2°55.904 -999 -999 -999  
2002-03-12 07:01:10 51°13.687 2°55.904 -999 -999 -999  
2002-03-12 07:01:15 51°13.687 2°55.902 -999 -999 -999  
2002-03-12 07:01:20 51°13.688 2°55.9 -999 -999 -999  
2002-03-12 07:01:25 51°13.688 2°55.897 -999 -999 -999  
2002-03-12 07:01:30 51°13.689 2°55.893 -999 -999 -999  
2002-03-12 07:01:36 51°13.69 2°55.887 -999 -999 -999  
2002-03-12 07:01:41 51°13.691 2°55.88 -999 -999 -999  
2002-03-12 07:01:46 51°13.692 2°55.873 -999 -999 -999  
2002-03-12 07:01:51 51°13.694 2°55.866 -999 -999 -999  
2002-03-12 07:01:56 51°13.695 2°55.858 -999 -999 -999  
2002-03-12 07:02:01 51°13.696 2°55.851 -999 -999 -999  
2002-03-12 07:02:06 51°13.696 2°55.844 -999 -999 -999  
2002-03-12 07:02:11 51°13.697 2°55.837 -999 -999 -999  
2002-03-12 07:02:16 51°13.698 2°55.83 -999 -999 -999  
2002-03-12 07:02:20 51°13.698 2°55.824 -999 -999 -999  
2002-03-12 07:02:25 51°13.699 2°55.816 -999 -999 -999  
2002-03-12 07:02:31 51°13.699 2°55.807 -999 -999 -999  
2002-03-12 07:02:36 51°13.7 2°55.799 -999 -999 -999  
2002-03-12 07:02:41 51°13.7 2°55.79 -999 -999 -999  
2002-03-12 07:02:46 51°13.7 2°55.782 -999 -999 -999  
2002-03-12 07:02:51 51°13.699 2°55.773 -999 -999 -999  
2002-03-12 07:02:56 51°13.699 2°55.765 -999 -999 -999  
2002-03-12 07:03:01 51°13.698 2°55.757 -999 -999 -999  
2002-03-12 07:03:06 51°13.698 2°55.749 -999 -999 -999  
2002-03-12 07:03:10 51°13.697 2°55.744 -999 -999 -999  
2002-03-12 07:03:15 51°13.696 2°55.737 -999 -999 -999  
2002-03-12 07:03:20 51°13.696 2°55.73 -999 -999 -999  
2002-03-12 07:03:25 51°13.695 2°55.724 -999 -999 -999  
2002-03-12 07:03:29 51°13.695 2°55.719 -999 -999 -999  
2002-03-12 07:03:35 51°13.695 2°55.715 -999 -999 -999  
2002-03-12 07:03:40 51°13.695 2°55.713 -999 -999 -999  
2002-03-12 07:03:45 51°13.696 2°55.714 -999 -999 -999  
2002-03-12 07:03:50 51°13.698 2°55.715 -999 -999 -999  
2002-03-12 07:03:55 51°13.701 2°55.717 -999 -999 -999  
2002-03-12 07:04:00 51°13.706 2°55.719 -999 -999 -999  
2002-03-12 07:04:05 51°13.711 2°55.719 -999 -999 -999  
2002-03-12 07:04:10 51°13.718 2°55.719 -999 -999 -999  
2002-03-12 07:04:15 51°13.727 2°55.716 -999 -999 -999  
2002-03-12 07:04:20 51°13.736 2°55.712 -999 -999 -999  
2002-03-12 07:04:25 51°13.746 2°55.705 -999 -999 -999  
2002-03-12 07:04:29 51°13.754 2°55.7 -999 -999 -999  
2002-03-12 07:04:35 51°13.767 2°55.69 -999 -999 -999  
2002-03-12 07:04:40 51°13.778 2°55.682 -999 -999 -999  
2002-03-12 07:04:45 51°13.789 2°55.674 -999 -999 -999  
2002-03-12 07:04:50 51°13.801 2°55.665 -999 -999 -999  
2002-03-12 07:04:55 51°13.812 2°55.657 -999 -999 -999  
2002-03-12 07:05:00 51°13.824 2°55.648 -999 -999 -999  
2002-03-12 07:05:05 51°13.837 2°55.641 -999 -999 -999  
2002-03-12 07:05:10 51°13.849 2°55.632 -999 -999 -999  
2002-03-12 07:05:15 51°13.862 2°55.625 -999 -999 -999  
2002-03-12 07:05:19 51°13.872 2°55.618 -999 -999 -999  
2002-03-12 07:05:25 51°13.887 2°55.608 -999 -999 -999  
2002-03-12 07:05:30 51°13.9 2°55.599 -999 -999 -999  
2002-03-12 07:05:35 51°13.913 2°55.591 -999 -999 -999  
2002-03-12 07:05:40 51°13.926 2°55.583 -999 -999 -999  
2002-03-12 07:05:45 51°13.939 2°55.574 -999 -999 -999  
2002-03-12 07:05:50 51°13.952 2°55.566 -999 -999 -999  
2002-03-12 07:05:55 51°13.965 2°55.558 -999 -999 -999  
2002-03-12 07:06:00 51°13.978 2°55.55 -999 -999 -999  
2002-03-12 07:06:05 51°13.99 2°55.542 -999 -999 -999  
2002-03-12 07:06:10 51°14.002 2°55.534 -999 -999 -999  
2002-03-12 07:06:15 51°14.013 2°55.527 -999 -999 -999  
2002-03-12 07:06:19 51°14.021 2°55.521 -999 -999 -999  
2002-03-12 07:06:25 51°14.033 2°55.514 -999 -999 -999  
2002-03-12 07:06:30 51°14.043 2°55.508 -999 -999 -999  
2002-03-12 07:06:35 51°14.052 2°55.501 -999 -999 -999  
2002-03-12 07:06:40 51°14.06 2°55.494 -999 -999 -999  
2002-03-12 07:06:45 51°14.069 2°55.487 -999 -999 -999  
2002-03-12 07:06:50 51°14.076 2°55.481 -999 -999 -999  
2002-03-12 07:06:55 51°14.084 2°55.474 -999 -999 -999  
2002-03-12 07:06:59 51°14.09 2°55.469 -999 -999 -999  
2002-03-12 07:07:05 51°14.099 2°55.462 -999 -999 -999  
2002-03-12 07:07:10 51°14.106 2°55.456 -999 -999 -999  
2002-03-12 07:07:15 51°14.113 2°55.45 -999 -999 -999  
2002-03-12 07:07:20 51°14.12 2°55.444 -999 -999 -999  
2002-03-12 07:07:25 51°14.127 2°55.438 -999 -999 -999  
2002-03-12 07:07:30 51°14.134 2°55.431 -999 -999 -999  
2002-03-12 07:07:35 51°14.141 2°55.424 -999 -999 -999  
2002-03-12 07:07:40 51°14.148 2°55.417 -999 -999 -999  
2002-03-12 07:07:45 51°14.155 2°55.41 -999 -999 -999  
2002-03-12 07:07:50 51°14.163 2°55.402 -999 -999 -999  
2002-03-12 07:07:55 51°14.171 2°55.393 -999 -999 -999  
2002-03-12 07:08:00 51°14.179 2°55.384 -999 -999 -999  
2002-03-12 07:08:05 51°14.188 2°55.373 -999 -999 -999  
2002-03-12 07:08:10 51°14.197 2°55.362 -999 -999 -999  
2002-03-12 07:08:15 51°14.207 2°55.35 -999 -999 -999  
2002-03-12 07:08:20 51°14.216 2°55.338 -999 -999 -999  
2002-03-12 07:08:25 51°14.226 2°55.325 -999 -999 -999  
2002-03-12 07:08:30 51°14.235 2°55.311 -999 -999 -999  
2002-03-12 07:08:35 51°14.244 2°55.297 -999 -999 -999  
2002-03-12 07:08:40 51°14.253 2°55.282 -999 -999 -999  
2002-03-12 07:08:45 51°14.263 2°55.267 -999 -999 -999  
2002-03-12 07:08:50 51°14.271 2°55.252 -999 -999 -999  
2002-03-12 07:08:55 51°14.278 2°55.238 -999 -999 -999  
2002-03-12 07:09:00 51°14.286 2°55.224 -999 -999 -999  
2002-03-12 07:09:05 51°14.292 2°55.211 -999 -999 -999  
2002-03-12 07:09:09 51°14.297 2°55.201 -999 -999 -999  
2002-03-12 07:09:15 51°14.303 2°55.186 -999 -999 -999  
2002-03-12 07:09:20 51°14.309 2°55.173 -999 -999 -999  
2002-03-12 07:09:25 51°14.313 2°55.161 -999 -999 -999  
2002-03-12 07:09:29 51°14.317 2°55.152 -999 -999 -999  
2002-03-12 07:09:35 51°14.322 2°55.139 -999 -999 -999  
2002-03-12 07:09:40 51°14.327 2°55.128 -999 -999 -999  
2002-03-12 07:09:45 51°14.331 2°55.116 -999 -999 -999  
2002-03-12 07:09:50 51°14.335 2°55.104 -999 -999 -999  
2002-03-12 07:09:55 51°14.34 2°55.092 -999 -999 -999  
2002-03-12 07:10:00 51°14.345 2°55.078 -999 -999 -999  
2002-03-12 07:10:05 51°14.35 2°55.063 -999 -999 -999  
2002-03-12 07:10:10 51°14.356 2°55.047 -999 -999 -999  
2002-03-12 07:10:15 51°14.362 2°55.03 -999 -999 -999  
2002-03-12 07:10:19 51°14.368 2°55.016 -999 -999 -999  
2002-03-12 07:10:25 51°14.377 2°54.994 -999 -999 -999  
2002-03-12 07:10:30 51°14.385 2°54.975 -999 -999 -999  
2002-03-12 07:10:35 51°14.394 2°54.956 -999 -999 -999  
2002-03-12 07:10:40 51°14.404 2°54.937 -999 -999 -999  
2002-03-12 07:10:45 51°14.414 2°54.918 -999 -999 -999  
2002-03-12 07:10:50 51°14.425 2°54.9 -999 -999 -999  
2002-03-12 07:10:55 51°14.436 2°54.883 -999 -999 -999  
2002-03-12 07:10:59 51°14.446 2°54.869 -999 -999 -999  
2002-03-12 07:11:05 51°14.461 2°54.849 -999 -999 -999  
2002-03-12 07:11:10 51°14.473 2°54.833 -999 -999 -999  
2002-03-12 07:11:15 51°14.486 2°54.816 -999 -999 -999  
2002-03-12 07:11:20 51°14.499 2°54.8 -999 -999 -999  
2002-03-12 07:11:25 51°14.511 2°54.783 -999 -999 -999  
2002-03-12 07:11:30 51°14.524 2°54.766 -999 -999 -999  
2002-03-12 07:11:35 51°14.536 2°54.749 -999 -999 -999  
2002-03-12 07:11:40 51°14.549 2°54.731 -999 -999 -999  
2002-03-12 07:11:45 51°14.561 2°54.713 -999 -999 -999  
2002-03-12 07:11:50 51°14.574 2°54.696 -999 -999 -999  
2002-03-12 07:11:55 51°14.586 2°54.679 -999 -999 -999  
2002-03-12 07:12:00 51°14.599 2°54.662 -999 -999 -999  
2002-03-12 07:12:05 51°14.612 2°54.644 -999 -999 -999  
2002-03-12 07:12:10 51°14.625 2°54.627 -999 -999 -999  
2002-03-12 07:12:15 51°14.637 2°54.61 -999 -999 -999  
2002-03-12 07:12:19 51°14.647 2°54.596 -999 -999 -999  
2002-03-12 07:12:25 51°14.663 2°54.576 -999 -999 -999  
2002-03-12 07:12:30 51°14.676 2°54.558 -999 -999 -999  
2002-03-12 07:12:35 51°14.688 2°54.541 -999 -999 -999  
2002-03-12 07:12:40 51°14.701 2°54.524 -999 -999 -999  
2002-03-12 07:12:45 51°14.714 2°54.507 -999 -999 -999  
2002-03-12 07:12:50 51°14.727 2°54.49 -999 -999 -999  
2002-03-12 07:12:55 51°14.74 2°54.473 -999 -999 -999  
2002-03-12 07:12:59 51°14.75 2°54.459 -999 -999 -999  
2002-03-12 07:13:05 51°14.765 2°54.439 -999 -999 -999  
2002-03-12 07:13:10 51°14.778 2°54.421 -999 -999 -999  
2002-03-12 07:13:15 51°14.79 2°54.404 -999 -999 -999  
2002-03-12 07:13:19 51°14.801 2°54.391 -999 -999 -999  
2002-03-12 07:13:25 51°14.816 2°54.37 -999 -999 -999  
2002-03-12 07:13:30 51°14.829 2°54.353 -999 -999 -999  
2002-03-12 07:13:35 51°14.842 2°54.336 -999 -999 -999  
2002-03-12 07:13:40 51°14.854 2°54.319 -999 -999 -999  
2002-03-12 07:13:45 51°14.867 2°54.303 -999 -999 -999  
2002-03-12 07:13:50 51°14.88 2°54.286 -999 -999 -999  
2002-03-12 07:13:55 51°14.893 2°54.27 -999 -999 -999  
2002-03-12 07:14:00 51°14.906 2°54.253 -999 -999 -999  
2002-03-12 07:14:05 51°14.919 2°54.237 -999 -999 -999  
2002-03-12 07:14:10 51°14.932 2°54.22 -999 -999 -999  
2002-03-12 07:14:15 51°14.945 2°54.205 -999 -999 -999  
2002-03-12 07:14:20 51°14.958 2°54.188 -999 -999 -999  
2002-03-12 07:14:25 51°14.971 2°54.173 -999 -999 -999  
2002-03-12 07:14:30 51°14.984 2°54.156 -999 -999 -999  
2002-03-12 07:14:35 51°14.998 2°54.14 -999 -999 -999  
2002-03-12 07:14:40 51°15.011 2°54.122 -999 -999 -999  
2002-03-12 07:14:45 51°15.025 2°54.107 -999 -999 -999  
2002-03-12 07:14:50 51°15.038 2°54.089 -999 -999 -999  
2002-03-12 07:14:55 51°15.053 2°54.073 -999 -999 -999  
2002-03-12 07:15:00 51°15.066 2°54.055 -999 -999 -999  
2002-03-12 07:15:05 51°15.081 2°54.039 -999 -999 -999  
2002-03-12 07:15:10 51°15.094 2°54.021 -999 -999 -999  
2002-03-12 07:15:15 51°15.109 2°54.005 -999 -999 -999  
2002-03-12 07:15:20 51°15.123 2°53.986 -999 -999 -999  
2002-03-12 07:15:25 51°15.138 2°53.97 -999 -999 -999  
2002-03-12 07:15:30 51°15.151 2°53.951 -999 -999 -999  
2002-03-12 07:15:35 51°15.166 2°53.935 -999 -999 -999  
2002-03-12 07:15:40 51°15.18 2°53.915 -999 -999 -999  
2002-03-12 07:15:45 51°15.195 2°53.899 -999 -999 -999  
2002-03-12 07:15:50 51°15.209 2°53.879 -999 -999 -999  
2002-03-12 07:15:55 51°15.224 2°53.863 -999 -999 -999  
2002-03-12 07:16:00 51°15.237 2°53.843 -999 -999 -999  
2002-03-12 07:16:05 51°15.253 2°53.827 -999 -999 -999  
2002-03-12 07:16:10 51°15.267 2°53.807 -999 -999 -999  
2002-03-12 07:16:15 51°15.282 2°53.792 -999 -999 -999  
2002-03-12 07:16:20 51°15.297 2°53.773 -999 -999 -999  
2002-03-12 07:16:25 51°15.312 2°53.757 -999 -999 -999  
2002-03-12 07:16:30 51°15.327 2°53.739 -999 -999 -999  
2002-03-12 07:16:35 51°15.343 2°53.724 -999 -999 -999  
2002-03-12 07:16:40 51°15.358 2°53.706 -999 -999 -999  
2002-03-12 07:16:45 51°15.374 2°53.692 -999 -999 -999  
2002-03-12 07:16:50 51°15.389 2°53.673 -999 -999 -999  
2002-03-12 07:16:55 51°15.406 2°53.66 -999 -999 -999  
2002-03-12 07:17:00 51°15.421 2°53.642 -999 -999 -999  
2002-03-12 07:17:05 51°15.437 2°53.627 -999 -999 -999  
2002-03-12 07:17:10 51°15.452 2°53.61 -999 -999 -999  
2002-03-12 07:17:15 51°15.468 2°53.596 -999 -999 -999  
2002-03-12 07:17:19 51°15.481 2°53.582 -999 -999 -999  
2002-03-12 07:17:25 51°15.5 2°53.564 -999 -999 -999  
2002-03-12 07:17:30 51°15.516 2°53.546 -999 -999 -999  
2002-03-12 07:17:35 51°15.532 2°53.532 -999 -999 -999  
2002-03-12 07:17:40 51°15.547 2°53.514 -999 -999 -999  
2002-03-12 07:17:45 51°15.563 2°53.499 -999 -999 -999  
2002-03-12 07:17:50 51°15.579 2°53.482 -999 -999 -999  
2002-03-12 07:17:55 51°15.595 2°53.467 -999 -999 -999  
2002-03-12 07:18:00 51°15.61 2°53.449 -999 -999 -999  
2002-03-12 07:18:05 51°15.626 2°53.434 -999 -999 -999  
2002-03-12 07:18:10 51°15.641 2°53.415 -999 -999 -999  
2002-03-12 07:18:15 51°15.657 2°53.401 -999 -999 -999  
2002-03-12 07:18:20 51°15.672 2°53.383 -999 -999 -999  
2002-03-12 07:18:25 51°15.688 2°53.367 -999 -999 -999  
2002-03-12 07:18:30 51°15.703 2°53.349 -999 -999 -999  
2002-03-12 07:18:35 51°15.719 2°53.334 -999 -999 -999  
2002-03-12 07:18:40 51°15.734 2°53.316 -999 -999 -999  
2002-03-12 07:18:45 51°15.75 2°53.3 -999 -999 -999  
2002-03-12 07:18:50 51°15.765 2°53.283 -999 -999 -999  
2002-03-12 07:18:55 51°15.781 2°53.267 -999 -999 -999  
2002-03-12 07:19:00 51°15.796 2°53.25 -999 -999 -999  
2002-03-12 07:19:05 51°15.812 2°53.234 -999 -999 -999  
2002-03-12 07:19:10 51°15.828 2°53.217 -999 -999 -999  
2002-03-12 07:19:15 51°15.843 2°53.201 -999 -999 -999  
2002-03-12 07:19:20 51°15.859 2°53.185 -999 -999 -999  
2002-03-12 07:19:25 51°15.874 2°53.168 -999 -999 -999  
2002-03-12 07:19:30 51°15.89 2°53.153 -999 -999 -999  
2002-03-12 07:19:35 51°15.906 2°53.135 -999 -999 -999  
2002-03-12 07:19:40 51°15.922 2°53.12 -999 -999 -999  
2002-03-12 07:19:45 51°15.937 2°53.103 -999 -999 -999  
2002-03-12 07:19:50 51°15.953 2°53.088 -999 -999 -999  
2002-03-12 07:19:55 51°15.968 2°53.07 -999 -999 -999  
2002-03-12 07:20:00 51°15.984 2°53.056 -999 -999 -999  
2002-03-12 07:20:05 51°15.999 2°53.038 -999 -999 -999  
2002-03-12 07:20:10 51°16.016 2°53.024 -999 -999 -999  
2002-03-12 07:20:15 51°16.031 2°53.007 -999 -999 -999  
2002-03-12 07:20:20 51°16.048 2°52.994 -999 -999 -999  
2002-03-12 07:20:25 51°16.063 2°52.978 -999 -999 -999  
2002-03-12 07:20:30 51°16.08 2°52.966 -999 -999 -999  
2002-03-12 07:20:35 51°16.096 2°52.951 -999 -999 -999  
2002-03-12 07:20:40 51°16.113 2°52.941 -999 -999 -999  
2002-03-12 07:20:45 51°16.13 2°52.927 -999 -999 -999  
2002-03-12 07:20:50 51°16.147 2°52.917 -999 -999 -999  
2002-03-12 07:20:55 51°16.164 2°52.905 -999 -999 -999  
2002-03-12 07:21:00 51°16.181 2°52.896 -999 -999 -999  
2002-03-12 07:21:05 51°16.198 2°52.884 -999 -999 -999  
2002-03-12 07:21:10 51°16.215 2°52.874 -999 -999 -999  
2002-03-12 07:21:15 51°16.232 2°52.863 -999 -999 -999  
2002-03-12 07:21:20 51°16.249 2°52.853 -999 -999 -999  
2002-03-12 07:21:25 51°16.266 2°52.842 -999 -999 -999  
2002-03-12 07:21:30 51°16.283 2°52.831 -999 -999 -999  
2002-03-12 07:21:35 51°16.3 2°52.82 -999 -999 -999  
2002-03-12 07:21:40 51°16.317 2°52.809 -999 -999 -999  
2002-03-12 07:21:45 51°16.335 2°52.799 -999 -999 -999  
2002-03-12 07:21:50 51°16.351 2°52.788 -999 -999 -999  
2002-03-12 07:21:55 51°16.369 2°52.778 -999 -999 -999  
2002-03-12 07:22:00 51°16.385 2°52.766 -999 -999 -999  
2002-03-12 07:22:05 51°16.403 2°52.758 -999 -999 -999  
2002-03-12 07:22:10 51°16.419 2°52.745 -999 -999 -999  
2002-03-12 07:22:15 51°16.437 2°52.737 -999 -999 -999  
2002-03-12 07:22:20 51°16.454 2°52.725 -999 -999 -999  
2002-03-12 07:22:25 51°16.471 2°52.717 -999 -999 -999  
2002-03-12 07:22:30 51°16.488 2°52.705 -999 -999 -999  
2002-03-12 07:22:35 51°16.505 2°52.698 -999 -999 -999  
2002-03-12 07:22:40 51°16.522 2°52.686 -999 -999 -999  
2002-03-12 07:22:45 51°16.539 2°52.679 -999 -999 -999  
2002-03-12 07:22:50 51°16.556 2°52.668 -999 -999 -999  
2002-03-12 07:22:55 51°16.574 2°52.662 -999 -999 -999  
2002-03-12 07:23:00 51°16.591 2°52.651 -999 -999 -999  
2002-03-12 07:23:05 51°16.608 2°52.644 -999 -999 -999  
2002-03-12 07:23:10 51°16.625 2°52.634 -999 -999 -999  
2002-03-12 07:23:15 51°16.643 2°52.627 -999 -999 -999  
2002-03-12 07:23:20 51°16.66 2°52.617 -999 -999 -999  
2002-03-12 07:23:25 51°16.677 2°52.61 -999 -999 -999  
2002-03-12 07:23:30 51°16.694 2°52.6 -999 -999 -999  
2002-03-12 07:23:35 51°16.711 2°52.592 -999 -999 -999  
2002-03-12 07:23:40 51°16.728 2°52.583 -999 -999 -999  
2002-03-12 07:23:45 51°16.744 2°52.575 -999 -999 -999  
2002-03-12 07:23:50 51°16.761 2°52.566 -999 -999 -999  
2002-03-12 07:23:55 51°16.777 2°52.557 -999 -999 -999  
2002-03-12 07:24:00 51°16.794 2°52.549 -999 -999 -999  
2002-03-12 07:24:05 51°16.811 2°52.54 -999 -999 -999  
2002-03-12 07:24:10 51°16.828 2°52.533 -999 -999 -999  
2002-03-12 07:24:15 51°16.845 2°52.525 -999 -999 -999  
2002-03-12 07:24:20 51°16.862 2°52.518 -999 -999 -999  
2002-03-12 07:24:25 51°16.879 2°52.51 -999 -999 -999  
2002-03-12 07:24:30 51°16.896 2°52.503 -999 -999 -999  
2002-03-12 07:24:35 51°16.913 2°52.495 -999 -999 -999  
2002-03-12 07:24:40 51°16.931 2°52.489 -999 -999 -999  
2002-03-12 07:24:45 51°16.947 2°52.481 -999 -999 -999  
2002-03-12 07:24:49 51°16.961 2°52.476 -999 -999 -999  
2002-03-12 07:24:55 51°16.981 2°52.466 -999 -999 -999  
2002-03-12 07:25:00 51°16.998 2°52.461 -999 -999 -999  
2002-03-12 07:25:05 51°17.015 2°52.453 -999 -999 -999  
2002-03-12 07:25:10 51°17.032 2°52.447 -999 -999 -999  
2002-03-12 07:25:15 51°17.049 2°52.439 -999 -999 -999  
2002-03-12 07:25:20 51°17.066 2°52.433 -999 -999 -999  
2002-03-12 07:25:25 51°17.083 2°52.424 -999 -999 -999  
2002-03-12 07:25:30 51°17.1 2°52.418 -999 -999 -999  
2002-03-12 07:25:35 51°17.117 2°52.41 -999 -999 -999  
2002-03-12 07:25:40 51°17.135 2°52.404 -999 -999 -999  
2002-03-12 07:25:45 51°17.152 2°52.396 -999 -999 -999  
2002-03-12 07:25:50 51°17.169 2°52.391 -999 -999 -999  
2002-03-12 07:25:55 51°17.186 2°52.384 -999 -999 -999  
2002-03-12 07:26:00 51°17.204 2°52.38 -999 -999 -999  
2002-03-12 07:26:05 51°17.221 2°52.372 -999 -999 -999  
2002-03-12 07:26:10 51°17.238 2°52.368 -999 -999 -999  
2002-03-12 07:26:15 51°17.255 2°52.36 -999 -999 -999  
2002-03-12 07:26:20 51°17.273 2°52.356 -999 -999 -999  
2002-03-12 07:26:25 51°17.29 2°52.348 -999 -999 -999  
2002-03-12 07:26:30 51°17.308 2°52.344 -999 -999 -999  
2002-03-12 07:26:35 51°17.325 2°52.336 -999 -999 -999  
2002-03-12 07:26:40 51°17.342 2°52.332 -999 -999 -999  
2002-03-12 07:26:45 51°17.359 2°52.324 -999 -999 -999  
2002-03-12 07:26:50 51°17.377 2°52.32 -999 -999 -999  
2002-03-12 07:26:55 51°17.394 2°52.311 -999 -999 -999  
2002-03-12 07:27:00 51°17.411 2°52.307 -999 -999 -999  
2002-03-12 07:27:05 51°17.428 2°52.299 -999 -999 -999  
2002-03-12 07:27:10 51°17.445 2°52.294 -999 -999 -999  
2002-03-12 07:27:15 51°17.462 2°52.286 -999 -999 -999  
2002-03-12 07:27:20 51°17.48 2°52.281 -999 -999 -999  
2002-03-12 07:27:25 51°17.497 2°52.273 -999 -999 -999  
2002-03-12 07:27:30 51°17.514 2°52.268 -999 -999 -999  
2002-03-12 07:27:35 51°17.531 2°52.26 -999 -999 -999  
2002-03-12 07:27:40 51°17.549 2°52.255 -999 -999 -999  
2002-03-12 07:27:45 51°17.566 2°52.248 -999 -999 -999  
2002-03-12 07:27:50 51°17.583 2°52.244 -999 -999 -999  
2002-03-12 07:27:55 51°17.6 2°52.238 -999 -999 -999  
2002-03-12 07:28:00 51°17.617 2°52.235 -999 -999 -999  
2002-03-12 07:28:05 51°17.635 2°52.229 -999 -999 -999  
2002-03-12 07:28:10 51°17.652 2°52.227 -999 -999 -999  
2002-03-12 07:28:15 51°17.669 2°52.221 -999 -999 -999  
2002-03-12 07:28:20 51°17.687 2°52.219 -999 -999 -999  
2002-03-12 07:28:25 51°17.704 2°52.214 -999 -999 -999  
2002-03-12 07:28:30 51°17.721 2°52.211 -999 -999 -999  
2002-03-12 07:28:35 51°17.739 2°52.208 -999 -999 -999  
2002-03-12 07:28:40 51°17.756 2°52.206 -999 -999 -999  
2002-03-12 07:28:45 51°17.773 2°52.203 -999 -999 -999  
2002-03-12 07:28:50 51°17.79 2°52.202 -999 -999 -999  
2002-03-12 07:28:55 51°17.808 2°52.201 -999 -999 -999  
2002-03-12 07:29:00 51°17.825 2°52.2 -999 -999 -999  
2002-03-12 07:29:05 51°17.842 2°52.2 -999 -999 -999  
2002-03-12 07:29:10 51°17.86 2°52.2 -999 -999 -999  
2002-03-12 07:29:15 51°17.877 2°52.202 -999 -999 -999  
2002-03-12 07:29:20 51°17.894 2°52.203 -999 -999 -999  
2002-03-12 07:29:25 51°17.911 2°52.206 -999 -999 -999  
2002-03-12 07:29:30 51°17.928 2°52.21 -999 -999 -999  
2002-03-12 07:29:35 51°17.945 2°52.214 -999 -999 -999  
2002-03-12 07:29:39 51°17.959 2°52.217 -999 -999 -999  
2002-03-12 07:29:45 51°17.979 2°52.225 -999 -999 -999  
2002-03-12 07:29:50 51°17.996 2°52.23 -999 -999 -999  
2002-03-12 07:29:55 51°18.012 2°52.238 -999 -999 -999  
2002-03-12 07:30:00 51°18.029 2°52.244 -999 -999 -999  
2002-03-12 07:30:05 51°18.045 2°52.253 -999 -999 -999  
2002-03-12 07:30:10 51°18.062 2°52.259 -999 -999 -999  
2002-03-12 07:30:15 51°18.078 2°52.268 -999 -999 -999  
2002-03-12 07:30:20 51°18.095 2°52.274 -999 -999 -999  
2002-03-12 07:30:25 51°18.112 2°52.283 -999 -999 -999  
2002-03-12 07:30:30 51°18.129 2°52.288 -999 -999 -999  
2002-03-12 07:30:35 51°18.146 2°52.292 -999 -999 -999  
2002-03-12 07:30:40 51°18.162 2°52.297 -999 -999 -999  
2002-03-12 07:30:45 51°18.179 2°52.302 -999 -999 -999  
2002-03-12 07:30:50 51°18.196 2°52.309 -999 -999 -999  
2002-03-12 07:30:55 51°18.212 2°52.319 -999 -999 -999  
2002-03-12 07:31:00 51°18.227 2°52.332 -999 -999 -999  
2002-03-12 07:31:05 51°18.24 2°52.348 -999 -999 -999  
2002-03-12 07:31:10 51°18.252 2°52.366 -999 -999 -999  
2002-03-12 07:31:15 51°18.263 2°52.387 -999 -999 -999  
2002-03-12 07:31:19 51°18.27 2°52.405 -999 -999 -999  
2002-03-12 07:31:25 51°18.279 2°52.433 -999 -999 -999  
2002-03-12 07:31:30 51°18.286 2°52.458 -999 -999 -999  
2002-03-12 07:31:35 51°18.293 2°52.482 -999 -999 -999  
2002-03-12 07:31:40 51°18.301 2°52.506 -999 -999 -999  
2002-03-12 07:31:45 51°18.309 2°52.529 -999 -999 -999  
2002-03-12 07:31:50 51°18.318 2°52.552 -999 -999 -999  
2002-03-12 07:31:55 51°18.328 2°52.574 -999 -999 -999  
2002-03-12 07:32:00 51°18.338 2°52.596 -999 -999 -999  
2002-03-12 07:32:05 51°18.348 2°52.618 -999 -999 -999  
2002-03-12 07:32:10 51°18.357 2°52.64 -999 -999 -999  
2002-03-12 07:32:15 51°18.368 2°52.661 -999 -999 -999  
2002-03-12 07:32:20 51°18.378 2°52.684 -999 -999 -999  
2002-03-12 07:32:25 51°18.388 2°52.706 -999 -999 -999  
2002-03-12 07:32:30 51°18.398 2°52.728 -999 -999 -999  
2002-03-12 07:32:35 51°18.409 2°52.75 -999 -999 -999  
2002-03-12 07:32:39 51°18.416 2°52.768 -999 -999 -999  
2002-03-12 07:32:45 51°18.429 2°52.794 -999 -999 -999  
2002-03-12 07:32:50 51°18.439 2°52.816 -999 -999 -999  
2002-03-12 07:32:55 51°18.449 2°52.838 -999 -999 -999  
2002-03-12 07:32:59 51°18.456 2°52.856 -999 -999 -999  
2002-03-12 07:33:05 51°18.469 2°52.882 -999 -999 -999  
2002-03-12 07:33:10 51°18.478 2°52.905 -999 -999 -999  
2002-03-12 07:33:15 51°18.488 2°52.927 -999 -999 -999  
2002-03-12 07:33:20 51°18.498 2°52.949 -999 -999 -999  
2002-03-12 07:33:25 51°18.507 2°52.972 -999 -999 -999  
2002-03-12 07:33:30 51°18.517 2°52.995 -999 -999 -999  
2002-03-12 07:33:35 51°18.526 2°53.018 -999 -999 -999  
2002-03-12 07:33:40 51°18.535 2°53.041 -999 -999 -999  
2002-03-12 07:33:45 51°18.544 2°53.064 -999 -999 -999  
2002-03-12 07:33:50 51°18.553 2°53.088 -999 -999 -999  
2002-03-12 07:33:55 51°18.56 2°53.112 -999 -999 -999  
2002-03-12 07:34:00 51°18.568 2°53.136 -999 -999 -999  
2002-03-12 07:34:05 51°18.575 2°53.162 -999 -999 -999  
2002-03-12 07:34:10 51°18.583 2°53.186 -999 -999 -999  
2002-03-12 07:34:15 51°18.588 2°53.212 -999 -999 -999  
2002-03-12 07:34:20 51°18.596 2°53.236 -999 -999 -999  
2002-03-12 07:34:25 51°18.602 2°53.262 -999 -999 -999  
2002-03-12 07:34:30 51°18.61 2°53.287 -999 -999 -999  
2002-03-12 07:34:35 51°18.615 2°53.313 -999 -999 -999  
2002-03-12 07:34:40 51°18.624 2°53.337 -999 -999 -999  
2002-03-12 07:34:45 51°18.629 2°53.363 -999 -999 -999  
2002-03-12 07:34:50 51°18.637 2°53.387 -999 -999 -999  
2002-03-12 07:34:55 51°18.643 2°53.413 -999 -999 -999  
2002-03-12 07:35:00 51°18.651 2°53.437 -999 -999 -999  
2002-03-12 07:35:05 51°18.657 2°53.462 -999 -999 -999  
2002-03-12 07:35:10 51°18.666 2°53.486 -999 -999 -999  
2002-03-12 07:35:15 51°18.672 2°53.511 -999 -999 -999  
2002-03-12 07:35:19 51°18.679 2°53.53 -999 -999 -999  
2002-03-12 07:35:25 51°18.687 2°53.56 -999 -999 -999  
2002-03-12 07:35:30 51°18.696 2°53.584 -999 -999 -999  
2002-03-12 07:35:35 51°18.702 2°53.61 -999 -999 -999  
2002-03-12 07:35:40 51°18.711 2°53.633 -999 -999 -999  
2002-03-12 07:35:45 51°18.717 2°53.658 -999 -999 -999  
2002-03-12 07:35:50 51°18.726 2°53.682 -999 -999 -999  
2002-03-12 07:35:55 51°18.733 2°53.707 -999 -999 -999  
2002-03-12 07:36:00 51°18.741 2°53.731 -999 -999 -999  
2002-03-12 07:36:05 51°18.748 2°53.756 -999 -999 -999  
2002-03-12 07:36:10 51°18.756 2°53.78 -999 -999 -999  
2002-03-12 07:36:15 51°18.763 2°53.805 -999 -999 -999  
2002-03-12 07:36:20 51°18.771 2°53.829 -999 -999 -999  
2002-03-12 07:36:25 51°18.778 2°53.854 -999 -999 -999  
2002-03-12 07:36:30 51°18.786 2°53.878 -999 -999 -999  
2002-03-12 07:36:35 51°18.793 2°53.903 -999 -999 -999  
2002-03-12 07:36:40 51°18.801 2°53.928 -999 -999 -999  
2002-03-12 07:36:45 51°18.808 2°53.952 -999 -999 -999  
2002-03-12 07:36:50 51°18.816 2°53.977 -999 -999 -999  
2002-03-12 07:36:55 51°18.823 2°54.002 -999 -999 -999  
2002-03-12 07:37:00 51°18.831 2°54.026 -999 -999 -999  
2002-03-12 07:37:05 51°18.838 2°54.051 -999 -999 -999  
2002-03-12 07:37:10 51°18.846 2°54.075 -999 -999 -999  
2002-03-12 07:37:15 51°18.852 2°54.1 -999 -999 -999  
2002-03-12 07:37:20 51°18.86 2°54.124 -999 -999 -999  
2002-03-12 07:37:25 51°18.867 2°54.149 -999 -999 -999  
2002-03-12 07:37:30 51°18.875 2°54.173 -999 -999 -999  
2002-03-12 07:37:35 51°18.882 2°54.198 -999 -999 -999  
2002-03-12 07:37:40 51°18.89 2°54.222 -999 -999 -999  
2002-03-12 07:37:45 51°18.897 2°54.246 -999 -999 -999  
2002-03-12 07:37:50 51°18.905 2°54.271 -999 -999 -999  
2002-03-12 07:37:55 51°18.913 2°54.295 -999 -999 -999  
2002-03-12 07:38:00 51°18.92 2°54.32 -999 -999 -999  
2002-03-12 07:38:05 51°18.928 2°54.344 -999 -999 -999  
2002-03-12 07:38:10 51°18.935 2°54.369 -999 -999 -999  
2002-03-12 07:38:15 51°18.943 2°54.393 -999 -999 -999  
2002-03-12 07:38:20 51°18.951 2°54.417 -999 -999 -999  
2002-03-12 07:38:25 51°18.959 2°54.441 -999 -999 -999  
2002-03-12 07:38:30 51°18.966 2°54.466 -999 -999 -999  
2002-03-12 07:38:35 51°18.974 2°54.49 -999 -999 -999  
2002-03-12 07:38:39 51°18.98 2°54.51 -999 -999 -999  
2002-03-12 07:38:45 51°18.989 2°54.54 -999 -999 -999  
2002-03-12 07:38:50 51°18.996 2°54.565 -999 -999 -999  
2002-03-12 07:38:55 51°19.004 2°54.589 -999 -999 -999  
2002-03-12 07:39:00 51°19.011 2°54.614 -999 -999 -999  
2002-03-12 07:39:05 51°19.019 2°54.638 -999 -999 -999  
2002-03-12 07:39:10 51°19.026 2°54.662 -999 -999 -999  
2002-03-12 07:39:15 51°19.034 2°54.687 -999 -999 -999  
2002-03-12 07:39:19 51°19.04 2°54.706 -999 -999 -999  
2002-03-12 07:39:25 51°19.049 2°54.735 -999 -999 -999  
2002-03-12 07:39:30 51°19.056 2°54.761 -999 -999 -999  
2002-03-12 07:39:35 51°19.064 2°54.784 -999 -999 -999  
2002-03-12 07:39:40 51°19.071 2°54.809 -999 -999 -999  
2002-03-12 07:39:45 51°19.079 2°54.833 -999 -999 -999  
2002-03-12 07:39:50 51°19.086 2°54.858 -999 -999 -999  
2002-03-12 07:39:55 51°19.095 2°54.881 -999 -999 -999  
2002-03-12 07:39:59 51°19.1 2°54.902 -999 -999 -999  
2002-03-12 07:40:05 51°19.11 2°54.93 -999 -999 -999  
2002-03-12 07:40:10 51°19.116 2°54.955 -999 -999 -999  
2002-03-12 07:40:15 51°19.125 2°54.979 -999 -999 -999  
2002-03-12 07:40:19 51°19.13 2°54.999 -999 -999 -999  
2002-03-12 07:40:25 51°19.14 2°55.028 -999 -999 -999  
2002-03-12 07:40:30 51°19.146 2°55.053 -999 -999 -999  
2002-03-12 07:40:35 51°19.155 2°55.077 -999 -999 -999  
2002-03-12 07:40:39 51°19.16 2°55.097 -999 -999 -999  
2002-03-12 07:40:45 51°19.17 2°55.125 -999 -999 -999  
2002-03-12 07:40:50 51°19.176 2°55.15 -999 -999 -999  
2002-03-12 07:40:55 51°19.185 2°55.174 -999 -999 -999  
2002-03-12 07:40:59 51°19.19 2°55.194 -999 -999 -999  
2002-03-12 07:41:05 51°19.2 2°55.223 -999 -999 -999  
2002-03-12 07:41:10 51°19.206 2°55.248 -999 -999 -999  
2002-03-12 07:41:15 51°19.214 2°55.272 -999 -999 -999  
2002-03-12 07:41:19 51°19.219 2°55.292 -999 -999 -999  
2002-03-12 07:41:25 51°19.229 2°55.321 -999 -999 -999  
2002-03-12 07:41:30 51°19.236 2°55.346 -999 -999 -999  
2002-03-12 07:41:35 51°19.244 2°55.37 -999 -999 -999  
2002-03-12 07:41:40 51°19.251 2°55.395 -999 -999 -999  
2002-03-12 07:41:45 51°19.259 2°55.418 -999 -999 -999  
2002-03-12 07:41:50 51°19.266 2°55.443 -999 -999 -999  
2002-03-12 07:41:55 51°19.275 2°55.467 -999 -999 -999  
2002-03-12 07:42:00 51°19.281 2°55.492 -999 -999 -999  
2002-03-12 07:42:05 51°19.29 2°55.516 -999 -999 -999  
2002-03-12 07:42:10 51°19.296 2°55.541 -999 -999 -999  
2002-03-12 07:42:15 51°19.304 2°55.564 -999 -999 -999  
2002-03-12 07:42:20 51°19.311 2°55.589 -999 -999 -999  
2002-03-12 07:42:25 51°19.32 2°55.613 -999 -999 -999  
2002-03-12 07:42:30 51°19.326 2°55.638 -999 -999 -999  
2002-03-12 07:42:35 51°19.335 2°55.661 -999 -999 -999  
2002-03-12 07:42:40 51°19.342 2°55.686 -999 -999 -999  
2002-03-12 07:42:45 51°19.35 2°55.71 -999 -999 -999  
2002-03-12 07:42:50 51°19.357 2°55.734 -999 -999 -999  
2002-03-12 07:42:55 51°19.365 2°55.758 -999 -999 -999  
2002-03-12 07:43:00 51°19.372 2°55.783 -999 -999 -999  
2002-03-12 07:43:05 51°19.38 2°55.807 -999 -999 -999  
2002-03-12 07:43:10 51°19.387 2°55.831 -999 -999 -999  
2002-03-12 07:43:15 51°19.395 2°55.856 -999 -999 -999  
2002-03-12 07:43:20 51°19.402 2°55.88 -999 -999 -999  
2002-03-12 07:43:25 51°19.409 2°55.904 -999 -999 -999  
2002-03-12 07:43:30 51°19.417 2°55.928 -999 -999 -999  
2002-03-12 07:43:35 51°19.425 2°55.953 -999 -999 -999  
2002-03-12 07:43:40 51°19.433 2°55.977 -999 -999 -999  
2002-03-12 07:43:45 51°19.44 2°56.001 -999 -999 -999  
2002-03-12 07:43:50 51°19.448 2°56.025 -999 -999 -999  
2002-03-12 07:43:55 51°19.455 2°56.05 -999 -999 -999  
2002-03-12 07:43:59 51°19.461 2°56.069 -999 -999 -999  
2002-03-12 07:44:05 51°19.47 2°56.099 -999 -999 -999  
2002-03-12 07:44:10 51°19.478 2°56.122 -999 -999 -999  
2002-03-12 07:44:15 51°19.485 2°56.148 -999 -999 -999  
2002-03-12 07:44:20 51°19.493 2°56.171 -999 -999 -999  
2002-03-12 07:44:25 51°19.5 2°56.196 -999 -999 -999  
2002-03-12 07:44:30 51°19.508 2°56.22 -999 -999 -999  
2002-03-12 07:44:35 51°19.515 2°56.245 -999 -999 -999  
2002-03-12 07:44:40 51°19.524 2°56.268 -999 -999 -999  
2002-03-12 07:44:45 51°19.53 2°56.294 -999 -999 -999  
2002-03-12 07:44:50 51°19.539 2°56.317 -999 -999 -999  
2002-03-12 07:44:55 51°19.545 2°56.342 -999 -999 -999  
2002-03-12 07:45:00 51°19.554 2°56.365 -999 -999 -999  
2002-03-12 07:45:05 51°19.561 2°56.391 -999 -999 -999  
2002-03-12 07:45:10 51°19.57 2°56.414 -999 -999 -999  
2002-03-12 07:45:15 51°19.576 2°56.439 -999 -999 -999  
2002-03-12 07:45:20 51°19.584 2°56.463 -999 -999 -999  
2002-03-12 07:45:25 51°19.591 2°56.488 -999 -999 -999  
2002-03-12 07:45:30 51°19.599 2°56.512 -999 -999 -999  
2002-03-12 07:45:35 51°19.606 2°56.537 -999 -999 -999  
2002-03-12 07:45:40 51°19.614 2°56.561 -999 -999 -999  
2002-03-12 07:45:45 51°19.62 2°56.586 -999 -999 -999  
2002-03-12 07:45:50 51°19.628 2°56.61 -999 -999 -999  
2002-03-12 07:45:55 51°19.635 2°56.635 -999 -999 -999  
2002-03-12 07:46:00 51°19.642 2°56.659 -999 -999 -999  
2002-03-12 07:46:05 51°19.649 2°56.684 -999 -999 -999  
2002-03-12 07:46:10 51°19.657 2°56.708 -999 -999 -999  
2002-03-12 07:46:15 51°19.664 2°56.733 -999 -999 -999  
2002-03-12 07:46:20 51°19.672 2°56.757 -999 -999 -999  
2002-03-12 07:46:25 51°19.679 2°56.782 -999 -999 -999  
2002-03-12 07:46:30 51°19.686 2°56.806 -999 -999 -999  
2002-03-12 07:46:35 51°19.694 2°56.831 -999 -999 -999  
2002-03-12 07:46:40 51°19.701 2°56.856 -999 -999 -999  
2002-03-12 07:46:45 51°19.709 2°56.88 -999 -999 -999  
2002-03-12 07:46:50 51°19.716 2°56.905 -999 -999 -999  
2002-03-12 07:46:55 51°19.723 2°56.929 -999 -999 -999  
2002-03-12 07:47:00 51°19.73 2°56.954 -999 -999 -999  
2002-03-12 07:47:05 51°19.738 2°56.978 -999 -999 -999  
2002-03-12 07:47:10 51°19.746 2°57.003 -999 -999 -999  
2002-03-12 07:47:14 51°19.752 2°57.022 -999 -999 -999  
2002-03-12 07:47:20 51°19.76 2°57.052 -999 -999 -999  
2002-03-12 07:47:25 51°19.768 2°57.076 -999 -999 -999  
2002-03-12 07:47:30 51°19.775 2°57.101 -999 -999 -999  
2002-03-12 07:47:35 51°19.783 2°57.125 -999 -999 -999  
2002-03-12 07:47:39 51°19.788 2°57.145 -999 -999 -999  
2002-03-12 07:47:45 51°19.798 2°57.174 -999 -999 -999  
2002-03-12 07:47:50 51°19.804 2°57.2 -999 -999 -999  
2002-03-12 07:47:55 51°19.812 2°57.223 -999 -999 -999  
2002-03-12 07:48:00 51°19.819 2°57.249 -999 -999 -999  
2002-03-12 07:48:05 51°19.827 2°57.273 -999 -999 -999  
2002-03-12 07:48:10 51°19.834 2°57.298 -999 -999 -999  
2002-03-12 07:48:15 51°19.842 2°57.321 -999 -999 -999  
2002-03-12 07:48:20 51°19.849 2°57.347 -999 -999 -999  
2002-03-12 07:48:25 51°19.857 2°57.371 -999 -999 -999  
2002-03-12 07:48:30 51°19.864 2°57.396 -999 -999 -999  
2002-03-12 07:48:35 51°19.872 2°57.42 -999 -999 -999  
2002-03-12 07:48:40 51°19.879 2°57.445 -999 -999 -999  
2002-03-12 07:48:45 51°19.887 2°57.469 -999 -999 -999  
2002-03-12 07:48:50 51°19.894 2°57.494 -999 -999 -999  
2002-03-12 07:48:55 51°19.902 2°57.518 -999 -999 -999  
2002-03-12 07:49:00 51°19.909 2°57.543 -999 -999 -999  
2002-03-12 07:49:05 51°19.917 2°57.567 -999 -999 -999  
2002-03-12 07:49:10 51°19.924 2°57.592 -999 -999 -999  
2002-03-12 07:49:15 51°19.932 2°57.616 -999 -999 -999  
2002-03-12 07:49:20 51°19.939 2°57.641 -999 -999 -999  
2002-03-12 07:49:25 51°19.947 2°57.666 -999 -999 -999  
2002-03-12 07:49:30 51°19.954 2°57.69 -999 -999 -999  
2002-03-12 07:49:35 51°19.962 2°57.715 -999 -999 -999  
2002-03-12 07:49:40 51°19.97 2°57.739 -999 -999 -999  
2002-03-12 07:49:45 51°19.976 2°57.764 -999 -999 -999  
2002-03-12 07:49:50 51°19.984 2°57.788 -999 -999 -999  
2002-03-12 07:49:55 51°19.991 2°57.813 -999 -999 -999  
2002-03-12 07:50:00 51°20 2°57.836 -999 -999 -999  
2002-03-12 07:50:05 51°20.006 2°57.861 -999 -999 -999  
2002-03-12 07:50:10 51°20.015 2°57.885 -999 -999 -999  
2002-03-12 07:50:15 51°20.021 2°57.91 -999 -999 -999  
2002-03-12 07:50:20 51°20.029 2°57.934 -999 -999 -999  
2002-03-12 07:50:25 51°20.036 2°57.959 -999 -999 -999  
2002-03-12 07:50:30 51°20.044 2°57.983 -999 -999 -999  
2002-03-12 07:50:35 51°20.052 2°58.008 -999 -999 -999  
2002-03-12 07:50:40 51°20.059 2°58.032 -999 -999 -999  
2002-03-12 07:50:45 51°20.067 2°58.056 -999 -999 -999  
2002-03-12 07:50:50 51°20.074 2°58.081 -999 -999 -999  
2002-03-12 07:50:55 51°20.082 2°58.105 -999 -999 -999  
2002-03-12 07:51:00 51°20.09 2°58.13 -999 -999 -999  
2002-03-12 07:51:05 51°20.097 2°58.154 -999 -999 -999  
2002-03-12 07:51:10 51°20.105 2°58.179 -999 -999 -999  
2002-03-12 07:51:15 51°20.112 2°58.203 -999 -999 -999  
2002-03-12 07:51:20 51°20.119 2°58.228 -999 -999 -999  
2002-03-12 07:51:25 51°20.128 2°58.252 -999 -999 -999  
2002-03-12 07:51:30 51°20.135 2°58.278 -999 -999 -999  
2002-03-12 07:51:35 51°20.143 2°58.302 -999 -999 -999  
2002-03-12 07:51:40 51°20.15 2°58.327 -999 -999 -999  
2002-03-12 07:51:45 51°20.158 2°58.35 -999 -999 -999  
2002-03-12 07:51:50 51°20.165 2°58.376 -999 -999 -999  
2002-03-12 07:51:55 51°20.173 2°58.4 -999 -999 -999  
2002-03-12 07:52:00 51°20.18 2°58.425 -999 -999 -999  
2002-03-12 07:52:05 51°20.189 2°58.448 -999 -999 -999  
2002-03-12 07:52:10 51°20.195 2°58.473 -999 -999 -999  
2002-03-12 07:52:15 51°20.204 2°58.497 -999 -999 -999  
2002-03-12 07:52:20 51°20.21 2°58.522 -999 -999 -999  
2002-03-12 07:52:25 51°20.219 2°58.546 -999 -999 -999  
2002-03-12 07:52:30 51°20.226 2°58.571 -999 -999 -999  
2002-03-12 07:52:35 51°20.234 2°58.595 -999 -999 -999  
2002-03-12 07:52:40 51°20.241 2°58.62 -999 -999 -999  
2002-03-12 07:52:45 51°20.249 2°58.644 -999 -999 -999  
2002-03-12 07:52:50 51°20.256 2°58.669 -999 -999 -999  
2002-03-12 07:52:55 51°20.264 2°58.692 -999 -999 -999  
2002-03-12 07:52:59 51°20.269 2°58.713 -999 -999 -999  
2002-03-12 07:53:05 51°20.279 2°58.741 -999 -999 -999  
2002-03-12 07:53:10 51°20.286 2°58.766 -999 -999 -999  
2002-03-12 07:53:15 51°20.294 2°58.79 -999 -999 -999  
2002-03-12 07:53:20 51°20.301 2°58.815 -999 -999 -999  
2002-03-12 07:53:25 51°20.309 2°58.839 -999 -999 -999  
2002-03-12 07:53:30 51°20.316 2°58.863 -999 -999 -999  
2002-03-12 07:53:35 51°20.324 2°58.888 -999 -999 -999  
2002-03-12 07:53:40 51°20.331 2°58.913 -999 -999 -999  
2002-03-12 07:53:45 51°20.338 2°58.937 -999 -999 -999  
2002-03-12 07:53:50 51°20.346 2°58.961 -999 -999 -999  
2002-03-12 07:53:55 51°20.353 2°58.986 -999 -999 -999  
2002-03-12 07:54:00 51°20.361 2°59.01 -999 -999 -999  
2002-03-12 07:54:05 51°20.368 2°59.035 -999 -999 -999  
2002-03-12 07:54:10 51°20.376 2°59.059 -999 -999 -999  
2002-03-12 07:54:15 51°20.384 2°59.085 -999 -999 -999  
2002-03-12 07:54:20 51°20.392 2°59.109 -999 -999 -999  
2002-03-12 07:54:25 51°20.399 2°59.134 -999 -999 -999  
2002-03-12 07:54:30 51°20.407 2°59.158 -999 -999 -999  
2002-03-12 07:54:35 51°20.414 2°59.183 -999 -999 -999  
2002-03-12 07:54:40 51°20.422 2°59.207 -999 -999 -999  
2002-03-12 07:54:45 51°20.429 2°59.232 -999 -999 -999  
2002-03-12 07:54:50 51°20.438 2°59.256 -999 -999 -999  
2002-03-12 07:54:55 51°20.444 2°59.282 -999 -999 -999  
2002-03-12 07:55:00 51°20.453 2°59.305 -999 -999 -999  
2002-03-12 07:55:05 51°20.459 2°59.331 -999 -999 -999  
2002-03-12 07:55:10 51°20.467 2°59.355 -999 -999 -999  
2002-03-12 07:55:15 51°20.474 2°59.38 -999 -999 -999  
2002-03-12 07:55:20 51°20.482 2°59.404 -999 -999 -999  
2002-03-12 07:55:25 51°20.489 2°59.43 -999 -999 -999  
2002-03-12 07:55:30 51°20.496 2°59.454 -999 -999 -999  
2002-03-12 07:55:35 51°20.503 2°59.48 -999 -999 -999  
2002-03-12 07:55:40 51°20.511 2°59.504 -999 -999 -999  
2002-03-12 07:55:45 51°20.517 2°59.53 -999 -999 -999  
2002-03-12 07:55:50 51°20.525 2°59.554 -999 -999 -999  
2002-03-12 07:55:55 51°20.532 2°59.58 -999 -999 -999  
2002-03-12 07:56:00 51°20.539 2°59.605 -999 -999 -999  
2002-03-12 07:56:05 51°20.546 2°59.63 -999 -999 -999  
2002-03-12 07:56:10 51°20.553 2°59.654 -999 -999 -999  
2002-03-12 07:56:15 51°20.56 2°59.679 -999 -999 -999  
2002-03-12 07:56:20 51°20.568 2°59.704 -999 -999 -999  
2002-03-12 07:56:25 51°20.575 2°59.729 -999 -999 -999  
2002-03-12 07:56:30 51°20.582 2°59.754 -999 -999 -999  
2002-03-12 07:56:35 51°20.59 2°59.778 -999 -999 -999  
2002-03-12 07:56:40 51°20.597 2°59.803 -999 -999 -999  
2002-03-12 07:56:45 51°20.604 2°59.828 -999 -999 -999  
2002-03-12 07:56:50 51°20.612 2°59.853 -999 -999 -999  
2002-03-12 07:56:55 51°20.619 2°59.878 -999 -999 -999  
2002-03-12 07:57:00 51°20.626 2°59.903 -999 -999 -999  
2002-03-12 07:57:05 51°20.633 2°59.928 -999 -999 -999  
2002-03-12 07:57:10 51°20.641 2°59.953 -999 -999 -999  
2002-03-12 07:57:15 51°20.648 2°59.979 -999 -999 -999  
2002-03-12 07:57:20 51°20.655 3°0.004 -999 -999 -999  
2002-03-12 07:57:25 51°20.661 3°0.03 -999 -999 -999  
2002-03-12 07:57:30 51°20.669 3°0.055 -999 -999 -999  
2002-03-12 07:57:35 51°20.675 3°0.081 -999 -999 -999  
2002-03-12 07:57:40 51°20.682 3°0.106 -999 -999 -999  
2002-03-12 07:57:45 51°20.689 3°0.131 -999 -999 -999  
2002-03-12 07:57:50 51°20.697 3°0.156 -999 -999 -999  
2002-03-12 07:57:55 51°20.704 3°0.182 -999 -999 -999  
2002-03-12 07:58:00 51°20.711 3°0.207 -999 -999 -999  
2002-03-12 07:58:05 51°20.718 3°0.232 -999 -999 -999  
2002-03-12 07:58:10 51°20.725 3°0.257 -999 -999 -999  
2002-03-12 07:58:15 51°20.732 3°0.282 -999 -999 -999  
2002-03-12 07:58:20 51°20.739 3°0.308 -999 -999 -999  
2002-03-12 07:58:25 51°20.746 3°0.333 -999 -999 -999  
2002-03-12 07:58:30 51°20.753 3°0.358 -999 -999 -999  
2002-03-12 07:58:35 51°20.76 3°0.384 -999 -999 -999  
2002-03-12 07:58:40 51°20.768 3°0.41 -999 -999 -999  
2002-03-12 07:58:45 51°20.775 3°0.435 -999 -999 -999  
2002-03-12 07:58:50 51°20.781 3°0.46 -999 -999 -999  
2002-03-12 07:58:55 51°20.789 3°0.485 -999 -999 -999  
2002-03-12 07:59:00 51°20.795 3°0.511 -999 -999 -999  
2002-03-12 07:59:05 51°20.802 3°0.536 -999 -999 -999  
2002-03-12 07:59:10 51°20.809 3°0.561 -999 -999 -999  
2002-03-12 07:59:15 51°20.817 3°0.586 -999 -999 -999  
2002-03-12 07:59:20 51°20.823 3°0.612 -999 -999 -999  
2002-03-12 07:59:25 51°20.83 3°0.637 -999 -999 -999  
2002-03-12 07:59:30 51°20.838 3°0.662 -999 -999 -999  
2002-03-12 07:59:35 51°20.844 3°0.688 -999 -999 -999  
2002-03-12 07:59:40 51°20.851 3°0.713 -999 -999 -999  
2002-03-12 07:59:45 51°20.858 3°0.739 -999 -999 -999  
2002-03-12 07:59:50 51°20.865 3°0.764 -999 -999 -999  
2002-03-12 07:59:55 51°20.871 3°0.789 -999 -999 -999  
2002-03-12 08:00:00 51°20.878 3°0.815 -999 -999 -999  
2002-03-12 08:00:05 51°20.885 3°0.84 -999 -999 -999  
2002-03-12 08:00:10 51°20.892 3°0.866 -999 -999 -999  
2002-03-12 08:00:14 51°20.897 3°0.886 -999 -999 -999  
2002-03-12 08:00:20 51°20.905 3°0.917 -999 -999 -999  
2002-03-12 08:00:25 51°20.912 3°0.942 -999 -999 -999  
2002-03-12 08:00:30 51°20.919 3°0.968 -999 -999 -999  
2002-03-12 08:00:35 51°20.925 3°0.993 -999 -999 -999  
2002-03-12 08:00:40 51°20.932 3°1.019 -999 -999 -999  
2002-03-12 08:00:45 51°20.939 3°1.044 -999 -999 -999  
2002-03-12 08:00:50 51°20.946 3°1.069 -999 -999 -999  
2002-03-12 08:00:55 51°20.953 3°1.095 -999 -999 -999  
2002-03-12 08:01:00 51°20.959 3°1.12 -999 -999 -999  
2002-03-12 08:01:05 51°20.966 3°1.145 -999 -999 -999  
2002-03-12 08:01:10 51°20.973 3°1.171 -999 -999 -999  
2002-03-12 08:01:15 51°20.979 3°1.196 -999 -999 -999  
2002-03-12 08:01:20 51°20.986 3°1.222 -999 -999 -999  
2002-03-12 08:01:25 51°20.993 3°1.247 -999 -999 -999  
2002-03-12 08:01:30 51°21 3°1.273 -999 -999 -999  
2002-03-12 08:01:35 51°21.007 3°1.298 -999 -999 -999  
2002-03-12 08:01:39 51°21.012 3°1.319 -999 -999 -999  
2002-03-12 08:01:45 51°21.021 3°1.349 -999 -999 -999  
2002-03-12 08:01:50 51°21.028 3°1.374 -999 -999 -999  
2002-03-12 08:01:55 51°21.034 3°1.4 -999 -999 -999  
2002-03-12 08:02:00 51°21.041 3°1.425 -999 -999 -999  
2002-03-12 08:02:05 51°21.048 3°1.451 -999 -999 -999  
2002-03-12 08:02:10 51°21.055 3°1.476 -999 -999 -999  
2002-03-12 08:02:15 51°21.062 3°1.502 -999 -999 -999  
2002-03-12 08:02:20 51°21.069 3°1.527 -999 -999 -999  
2002-03-12 08:02:25 51°21.075 3°1.553 -999 -999 -999  
2002-03-12 08:02:30 51°21.082 3°1.579 -999 -999 -999  
2002-03-12 08:02:35 51°21.089 3°1.605 -999 -999 -999  
2002-03-12 08:02:40 51°21.096 3°1.63 -999 -999 -999  
2002-03-12 08:02:45 51°21.102 3°1.656 -999 -999 -999  
2002-03-12 08:02:50 51°21.11 3°1.681 -999 -999 -999  
2002-03-12 08:02:55 51°21.116 3°1.707 -999 -999 -999  
2002-03-12 08:03:00 51°21.124 3°1.732 -999 -999 -999  
2002-03-12 08:03:05 51°21.13 3°1.758 -999 -999 -999  
2002-03-12 08:03:10 51°21.137 3°1.783 -999 -999 -999  
2002-03-12 08:03:15 51°21.144 3°1.808 -999 -999 -999  
2002-03-12 08:03:20 51°21.151 3°1.833 -999 -999 -999  
2002-03-12 08:03:25 51°21.158 3°1.859 -999 -999 -999  
2002-03-12 08:03:30 51°21.165 3°1.884 -999 -999 -999  
2002-03-12 08:03:35 51°21.171 3°1.91 -999 -999 -999  
2002-03-12 08:03:39 51°21.177 3°1.93 -999 -999 -999  
2002-03-12 08:03:45 51°21.185 3°1.96 -999 -999 -999  
2002-03-12 08:03:50 51°21.192 3°1.986 -999 -999 -999  
2002-03-12 08:03:55 51°21.199 3°2.011 -999 -999 -999  
2002-03-12 08:04:00 51°21.205 3°2.037 -999 -999 -999  
2002-03-12 08:04:05 51°21.213 3°2.062 -999 -999 -999  
2002-03-12 08:04:10 51°21.219 3°2.088 -999 -999 -999  
2002-03-12 08:04:15 51°21.226 3°2.113 -999 -999 -999  
2002-03-12 08:04:20 51°21.233 3°2.139 -999 -999 -999  
2002-03-12 08:04:25 51°21.24 3°2.164 -999 -999 -999  
2002-03-12 08:04:30 51°21.246 3°2.19 -999 -999 -999  
2002-03-12 08:04:35 51°21.253 3°2.215 -999 -999 -999  
2002-03-12 08:04:40 51°21.26 3°2.241 -999 -999 -999  
2002-03-12 08:04:45 51°21.266 3°2.266 -999 -999 -999  
2002-03-12 08:04:50 51°21.273 3°2.292 -999 -999 -999  
2002-03-12 08:04:55 51°21.28 3°2.318 -999 -999 -999  
2002-03-12 08:05:00 51°21.287 3°2.343 -999 -999 -999  
2002-03-12 08:05:05 51°21.294 3°2.368 -999 -999 -999  
2002-03-12 08:05:10 51°21.301 3°2.394 -999 -999 -999  
2002-03-12 08:05:15 51°21.308 3°2.419 -999 -999 -999  
2002-03-12 08:05:20 51°21.314 3°2.445 -999 -999 -999  
2002-03-12 08:05:25 51°21.321 3°2.47 -999 -999 -999  
2002-03-12 08:05:30 51°21.328 3°2.496 -999 -999 -999  
2002-03-12 08:05:35 51°21.335 3°2.521 -999 -999 -999  
2002-03-12 08:05:40 51°21.341 3°2.546 -999 -999 -999  
2002-03-12 08:05:45 51°21.348 3°2.572 -999 -999 -999  
2002-03-12 08:05:50 51°21.355 3°2.597 -999 -999 -999  
2002-03-12 08:05:55 51°21.362 3°2.622 -999 -999 -999  
2002-03-12 08:06:00 51°21.369 3°2.648 -999 -999 -999  
2002-03-12 08:06:05 51°21.375 3°2.673 -999 -999 -999  
2002-03-12 08:06:10 51°21.383 3°2.698 -999 -999 -999  
2002-03-12 08:06:15 51°21.389 3°2.724 -999 -999 -999  
2002-03-12 08:06:20 51°21.396 3°2.749 -999 -999 -999  
2002-03-12 08:06:25 51°21.403 3°2.774 -999 -999 -999  
2002-03-12 08:06:30 51°21.41 3°2.799 -999 -999 -999  
2002-03-12 08:06:35 51°21.416 3°2.825 -999 -999 -999  
2002-03-12 08:06:40 51°21.423 3°2.85 -999 -999 -999  
2002-03-12 08:06:45 51°21.43 3°2.876 -999 -999 -999  
2002-03-12 08:06:50 51°21.437 3°2.901 -999 -999 -999  
2002-03-12 08:06:55 51°21.443 3°2.927 -999 -999 -999  
2002-03-12 08:06:59 51°21.449 3°2.946 -999 -999 -999  
2002-03-12 08:07:05 51°21.456 3°2.977 -999 -999 -999  
2002-03-12 08:07:10 51°21.464 3°3.002 -999 -999 -999  
2002-03-12 08:07:15 51°21.47 3°3.028 -999 -999 -999  
2002-03-12 08:07:19 51°21.476 3°3.047 -999 -999 -999  
2002-03-12 08:07:25 51°21.484 3°3.077 -999 -999 -999  
2002-03-12 08:07:30 51°21.491 3°3.103 -999 -999 -999  
2002-03-12 08:07:35 51°21.499 3°3.127 -999 -999 -999  
2002-03-12 08:07:40 51°21.505 3°3.152 -999 -999 -999  
2002-03-12 08:07:45 51°21.513 3°3.177 -999 -999 -999  
2002-03-12 08:07:50 51°21.519 3°3.202 -999 -999 -999  
2002-03-12 08:07:55 51°21.527 3°3.227 -999 -999 -999  
2002-03-12 08:08:01 51°21.534 3°3.257 -999 -999 -999  
2002-03-12 08:08:05 51°21.54 3°3.276 -999 -999 -999  
2002-03-12 08:08:10 51°21.546 3°3.302 -999 -999 -999  
2002-03-12 08:08:15 51°21.554 3°3.327 -999 -999 -999  
2002-03-12 08:08:20 51°21.56 3°3.352 -999 -999 -999  
2002-03-12 08:08:25 51°21.567 3°3.376 -999 -999 -999  
2002-03-12 08:08:30 51°21.574 3°3.402 -999 -999 -999  
2002-03-12 08:08:35 51°21.581 3°3.426 -999 -999 -999  
2002-03-12 08:08:40 51°21.588 3°3.452 -999 -999 -999  
2002-03-12 08:08:45 51°21.595 3°3.476 -999 -999 -999  
2002-03-12 08:08:50 51°21.602 3°3.501 -999 -999 -999  
2002-03-12 08:08:55 51°21.609 3°3.526 -999 -999 -999  
2002-03-12 08:09:00 51°21.615 3°3.551 -999 -999 -999  
2002-03-12 08:09:05 51°21.622 3°3.576 -999 -999 -999  
2002-03-12 08:09:10 51°21.629 3°3.601 -999 -999 -999  
2002-03-12 08:09:15 51°21.636 3°3.626 -999 -999 -999  
2002-03-12 08:09:21 51°21.644 3°3.656 -999 -999 -999  
2002-03-12 08:09:25 51°21.65 3°3.676 -999 -999 -999  
2002-03-12 08:09:30 51°21.657 3°3.701 -999 -999 -999  
2002-03-12 08:09:35 51°21.664 3°3.726 -999 -999 -999  
2002-03-12 08:09:40 51°21.671 3°3.751 -999 -999 -999  
2002-03-12 08:09:45 51°21.678 3°3.776 -999 -999 -999  
2002-03-12 08:09:50 51°21.685 3°3.801 -999 -999 -999  
2002-03-12 08:09:55 51°21.692 3°3.826 -999 -999 -999  
2002-03-12 08:10:00 51°21.699 3°3.851 -999 -999 -999  
2002-03-12 08:10:05 51°21.705 3°3.876 -999 -999 -999  
2002-03-12 08:10:10 51°21.713 3°3.9 -999 -999 -999  
2002-03-12 08:10:15 51°21.72 3°3.926 -999 -999 -999  
2002-03-12 08:10:20 51°21.726 3°3.951 -999 -999 -999  
2002-03-12 08:10:25 51°21.734 3°3.975 -999 -999 -999  
2002-03-12 08:10:30 51°21.741 3°4.001 -999 -999 -999  
2002-03-12 08:10:35 51°21.748 3°4.025 -999 -999 -999  
2002-03-12 08:10:39 51°21.753 3°4.045 -999 -999 -999  
2002-03-12 08:10:45 51°21.762 3°4.075 -999 -999 -999  
2002-03-12 08:10:50 51°21.769 3°4.1 -999 -999 -999  
2002-03-12 08:10:55 51°21.776 3°4.125 -999 -999 -999  
2002-03-12 08:11:00 51°21.783 3°4.15 -999 -999 -999  
2002-03-12 08:11:05 51°21.79 3°4.175 -999 -999 -999  
2002-03-12 08:11:10 51°21.797 3°4.2 -999 -999 -999  
2002-03-12 08:11:15 51°21.804 3°4.224 -999 -999 -999  
2002-03-12 08:11:20 51°21.811 3°4.249 -999 -999 -999  
2002-03-12 08:11:25 51°21.819 3°4.273 -999 -999 -999  
2002-03-12 08:11:30 51°21.825 3°4.298 -999 -999 -999  
2002-03-12 08:11:35 51°21.833 3°4.323 -999 -999 -999  
2002-03-12 08:11:40 51°21.839 3°4.347 -999 -999 -999  
2002-03-12 08:11:45 51°21.847 3°4.372 -999 -999 -999  
2002-03-12 08:11:50 51°21.854 3°4.396 -999 -999 -999  
2002-03-12 08:11:55 51°21.861 3°4.421 -999 -999 -999  
2002-03-12 08:12:00 51°21.867 3°4.445 -999 -999 -999  
2002-03-12 08:12:05 51°21.875 3°4.47 -999 -999 -999  
2002-03-12 08:12:10 51°21.882 3°4.495 -999 -999 -999  
2002-03-12 08:12:15 51°21.887 3°4.52 -999 -999 -999  
2002-03-12 08:12:20 51°21.894 3°4.545 -999 -999 -999  
2002-03-12 08:12:25 51°21.899 3°4.571 -999 -999 -999  
2002-03-12 08:12:30 51°21.905 3°4.596 -999 -999 -999  
2002-03-12 08:12:35 51°21.909 3°4.622 -999 -999 -999  
2002-03-12 08:12:40 51°21.914 3°4.648 -999 -999 -999  
2002-03-12 08:12:45 51°21.918 3°4.674 -999 -999 -999  
2002-03-12 08:12:50 51°21.922 3°4.7 -999 -999 -999  
2002-03-12 08:12:55 51°21.926 3°4.727 -999 -999 -999  
2002-03-12 08:13:00 51°21.93 3°4.754 -999 -999 -999  
2002-03-12 08:13:05 51°21.934 3°4.78 -999 -999 -999  
2002-03-12 08:13:10 51°21.938 3°4.806 -999 -999 -999  
2002-03-12 08:13:15 51°21.942 3°4.833 -999 -999 -999  
2002-03-12 08:13:20 51°21.947 3°4.859 -999 -999 -999  
2002-03-12 08:13:25 51°21.951 3°4.885 -999 -999 -999  
2002-03-12 08:13:30 51°21.955 3°4.912 -999 -999 -999  
2002-03-12 08:13:35 51°21.96 3°4.938 -999 -999 -999  
2002-03-12 08:13:40 51°21.965 3°4.964 -999 -999 -999  
2002-03-12 08:13:45 51°21.969 3°4.99 -999 -999 -999  
2002-03-12 08:13:50 51°21.973 3°5.016 -999 -999 -999  
2002-03-12 08:13:55 51°21.978 3°5.043 -999 -999 -999  
2002-03-12 08:14:00 51°21.982 3°5.069 -999 -999 -999  
2002-03-12 08:14:05 51°21.987 3°5.096 -999 -999 -999  
2002-03-12 08:14:10 51°21.991 3°5.121 -999 -999 -999  
2002-03-12 08:14:15 51°21.995 3°5.148 -999 -999 -999  
2002-03-12 08:14:19 51°21.999 3°5.169 -999 -999 -999  
2002-03-12 08:14:25 51°22.004 3°5.201 -999 -999 -999  
2002-03-12 08:14:30 51°22.009 3°5.226 -999 -999 -999  
2002-03-12 08:14:35 51°22.013 3°5.253 -999 -999 -999  
2002-03-12 08:14:40 51°22.018 3°5.279 -999 -999 -999  
2002-03-12 08:14:45 51°22.022 3°5.306 -999 -999 -999  
2002-03-12 08:14:50 51°22.028 3°5.332 -999 -999 -999  
2002-03-12 08:14:55 51°22.031 3°5.359 -999 -999 -999  
2002-03-12 08:15:00 51°22.037 3°5.385 -999 -999 -999  
2002-03-12 08:15:05 51°22.04 3°5.412 -999 -999 -999  
2002-03-12 08:15:10 51°22.045 3°5.438 -999 -999 -999  
2002-03-12 08:15:15 51°22.049 3°5.465 -999 -999 -999  
2002-03-12 08:15:20 51°22.054 3°5.492 -999 -999 -999  
2002-03-12 08:15:25 51°22.059 3°5.519 -999 -999 -999  
2002-03-12 08:15:30 51°22.063 3°5.545 -999 -999 -999  
2002-03-12 08:15:35 51°22.068 3°5.572 -999 -999 -999  
2002-03-12 08:15:40 51°22.072 3°5.598 -999 -999 -999  
2002-03-12 08:15:45 51°22.077 3°5.625 -999 -999 -999  
2002-03-12 08:15:50 51°22.081 3°5.652 -999 -999 -999  
2002-03-12 08:15:55 51°22.086 3°5.679 -999 -999 -999  
2002-03-12 08:15:59 51°22.089 3°5.701 -999 -999 -999  
2002-03-12 08:16:05 51°22.095 3°5.733 -999 -999 -999  
2002-03-12 08:16:10 51°22.1 3°5.759 -999 -999 -999  
2002-03-12 08:16:15 51°22.104 3°5.786 -999 -999 -999  
2002-03-12 08:16:20 51°22.109 3°5.813 -999 -999 -999  
2002-03-12 08:16:25 51°22.113 3°5.84 -999 -999 -999  
2002-03-12 08:16:30 51°22.118 3°5.866 -999 -999 -999  
2002-03-12 08:16:35 51°22.122 3°5.893 -999 -999 -999  
2002-03-12 08:16:40 51°22.127 3°5.92 -999 -999 -999  
2002-03-12 08:16:45 51°22.132 3°5.947 -999 -999 -999  
2002-03-12 08:16:50 51°22.136 3°5.973 -999 -999 -999  
2002-03-12 08:16:55 51°22.141 3°6 -999 -999 -999  
2002-03-12 08:17:00 51°22.146 3°6.026 -999 -999 -999  
2002-03-12 08:17:05 51°22.15 3°6.053 -999 -999 -999  
2002-03-12 08:17:10 51°22.155 3°6.08 -999 -999 -999  
2002-03-12 08:17:15 51°22.159 3°6.106 -999 -999 -999  
2002-03-12 08:17:21 51°22.165 3°6.138 -999 -999 -999  
2002-03-12 08:17:25 51°22.169 3°6.159 -999 -999 -999  
2002-03-12 08:17:30 51°22.173 3°6.186 -999 -999 -999  
2002-03-12 08:17:35 51°22.179 3°6.213 -999 -999 -999  
2002-03-12 08:17:40 51°22.182 3°6.24 -999 -999 -999  
2002-03-12 08:17:45 51°22.187 3°6.266 -999 -999 -999  
2002-03-12 08:17:50 51°22.191 3°6.293 -999 -999 -999  
2002-03-12 08:17:55 51°22.197 3°6.319 -999 -999 -999  
2002-03-12 08:18:00 51°22.201 3°6.346 -999 -999 -999  
2002-03-12 08:18:05 51°22.206 3°6.372 -999 -999 -999  
2002-03-12 08:18:10 51°22.21 3°6.399 -999 -999 -999  
2002-03-12 08:18:15 51°22.215 3°6.426 -999 -999 -999  
2002-03-12 08:18:20 51°22.22 3°6.453 -999 -999 -999  
2002-03-12 08:18:25 51°22.224 3°6.479 -999 -999 -999  
2002-03-12 08:18:30 51°22.229 3°6.506 -999 -999 -999  
2002-03-12 08:18:35 51°22.234 3°6.532 -999 -999 -999  
2002-03-12 08:18:40 51°22.238 3°6.559 -999 -999 -999  
2002-03-12 08:18:45 51°22.243 3°6.586 -999 -999 -999  
2002-03-12 08:18:50 51°22.248 3°6.613 -999 -999 -999  
2002-03-12 08:18:55 51°22.253 3°6.64 -999 -999 -999  
2002-03-12 08:19:00 51°22.258 3°6.666 -999 -999 -999  
2002-03-12 08:19:05 51°22.263 3°6.693 -999 -999 -999  
2002-03-12 08:19:10 51°22.268 3°6.72 -999 -999 -999  
2002-03-12 08:19:15 51°22.272 3°6.747 -999 -999 -999  
2002-03-12 08:19:20 51°22.277 3°6.774 -999 -999 -999  
2002-03-12 08:19:25 51°22.281 3°6.801 -999 -999 -999  
2002-03-12 08:19:30 51°22.286 3°6.829 -999 -999 -999  
2002-03-12 08:19:35 51°22.291 3°6.855 -999 -999 -999  
2002-03-12 08:19:40 51°22.295 3°6.882 -999 -999 -999  
2002-03-12 08:19:45 51°22.3 3°6.909 -999 -999 -999  
2002-03-12 08:19:50 51°22.305 3°6.937 -999 -999 -999  
2002-03-12 08:19:55 51°22.309 3°6.964 -999 -999 -999  
2002-03-12 08:20:00 51°22.314 3°6.99 -999 -999 -999  
2002-03-12 08:20:05 51°22.319 3°7.017 -999 -999 -999  
2002-03-12 08:20:10 51°22.323 3°7.045 -999 -999 -999  
2002-03-12 08:20:15 51°22.328 3°7.071 -999 -999 -999  
2002-03-12 08:20:20 51°22.333 3°7.098 -999 -999 -999  
2002-03-12 08:20:26 51°22.339 3°7.131 -999 -999 -999  
2002-03-12 08:20:30 51°22.342 3°7.153 -999 -999 -999  
2002-03-12 08:20:35 51°22.347 3°7.18 -999 -999 -999  
2002-03-12 08:20:40 51°22.351 3°7.207 -999 -999 -999  
2002-03-12 08:20:45 51°22.356 3°7.234 -999 -999 -999  
2002-03-12 08:20:50 51°22.36 3°7.262 -999 -999 -999  
2002-03-12 08:20:55 51°22.366 3°7.29 -999 -999 -999  
2002-03-12 08:21:00 51°22.37 3°7.317 -999 -999 -999  
2002-03-12 08:21:05 51°22.374 3°7.343 -999 -999 -999  
2002-03-12 08:21:10 51°22.379 3°7.371 -999 -999 -999  
2002-03-12 08:21:15 51°22.383 3°7.398 -999 -999 -999  
2002-03-12 08:21:20 51°22.388 3°7.426 -999 -999 -999  
2002-03-12 08:21:25 51°22.392 3°7.453 -999 -999 -999  
2002-03-12 08:21:30 51°22.397 3°7.481 -999 -999 -999  
2002-03-12 08:21:35 51°22.401 3°7.508 -999 -999 -999  
2002-03-12 08:21:40 51°22.405 3°7.535 -999 -999 -999  
2002-03-12 08:21:45 51°22.41 3°7.562 -999 -999 -999  
2002-03-12 08:21:50 51°22.414 3°7.59 -999 -999 -999  
2002-03-12 08:21:55 51°22.419 3°7.617 -999 -999 -999  
2002-03-12 08:22:00 51°22.423 3°7.645 -999 -999 -999  
2002-03-12 08:22:05 51°22.428 3°7.672 -999 -999 -999  
2002-03-12 08:22:10 51°22.432 3°7.699 -999 -999 -999  
2002-03-12 08:22:15 51°22.437 3°7.726 -999 -999 -999  
2002-03-12 08:22:20 51°22.442 3°7.753 -999 -999 -999  
2002-03-12 08:22:25 51°22.447 3°7.781 -999 -999 -999  
2002-03-12 08:22:30 51°22.451 3°7.809 -999 -999 -999  
2002-03-12 08:22:35 51°22.456 3°7.836 -999 -999 -999  
2002-03-12 08:22:40 51°22.46 3°7.863 -999 -999 -999  
2002-03-12 08:22:45 51°22.464 3°7.89 -999 -999 -999  
2002-03-12 08:22:50 51°22.468 3°7.918 -999 -999 -999  
2002-03-12 08:22:55 51°22.473 3°7.947 -999 -999 -999  
2002-03-12 08:22:59 51°22.476 3°7.969 -999 -999 -999  
2002-03-12 08:23:05 51°22.482 3°8.001 -999 -999 -999  
2002-03-12 08:23:10 51°22.486 3°8.028 -999 -999 -999  
2002-03-12 08:23:15 51°22.491 3°8.056 -999 -999 -999  
2002-03-12 08:23:20 51°22.495 3°8.085 -999 -999 -999  
2002-03-12 08:23:25 51°22.5 3°8.112 -999 -999 -999  
2002-03-12 08:23:30 51°22.504 3°8.14 -999 -999 -999  
2002-03-12 08:23:35 51°22.508 3°8.166 -999 -999 -999  
2002-03-12 08:23:40 51°22.513 3°8.194 -999 -999 -999  
2002-03-12 08:23:45 51°22.518 3°8.222 -999 -999 -999  
2002-03-12 08:23:50 51°22.522 3°8.25 -999 -999 -999  
2002-03-12 08:23:55 51°22.527 3°8.277 -999 -999 -999  
2002-03-12 08:24:00 51°22.531 3°8.305 -999 -999 -999  
2002-03-12 08:24:05 51°22.535 3°8.332 -999 -999 -999  
2002-03-12 08:24:10 51°22.54 3°8.359 -999 -999 -999  
2002-03-12 08:24:15 51°22.543 3°8.388 -999 -999 -999